Regional Weather Roundup
Issued by NWS

Home | Current Version | Previous Version | Graphics & Text | Print | Product List | Glossary On
Versions: 1 2 3 4 5 6 7 8 9 10 11 12 13 14 15 16 17 18 19 20 21 22 23 24 25 26 27 28 29 30 31 32 33 34 35 36 37 38 39 40 41 42 43 44 45 46 47 48 49 50
000
ASUS43 KLOT 140210
RWRIL

ILLINOIS REGIONAL WEATHER ROUNDUP
NATIONAL WEATHER SERVICE CHICAGO/ROMEOVILLE IL
900 PM CDT SUN JUL 13 2014

NOTE: "FAIR" INDICATES FEW OR NO CLOUDS BELOW 12,000 FEET WITH NO
SIGNIFICANT WEATHER AND/OR OBSTRUCTIONS TO VISIBILITY.

* THESE STATIONS ARE NOT UNDER NWS QUALITY CONTROL. THEY ALSO MAY NOT
  REPORT WEATHER SUCH AS PRECIPITATION OR FOG.

ILZ001-002-007-009-015-016-024-140300-
NORTHWEST ILLINOIS

CITY           SKY/WX    TMP DP  RH WIND       PRES   REMARKS
MOLINE         CLOUDY    72  66  81 SW3       29.92R
STERLING*      PTCLDY    70  66  88 W3        29.91S
SAVANNA*       PTCLDY    75  58  55 CALM      29.91S
$$

ILZ003-004-008-010-011-017-018-140300-
NORTH CENTRAL ILLINOIS

CITY           SKY/WX    TMP DP  RH WIND       PRES   REMARKS
ROCKFORD       PTCLDY    71  60  68 W5        29.91S
FREEPORT*      CLEAR     67  59  74 NW5       29.95R
ROCHELLE*      PTCLDY    69  66  88 W3        29.92S
DE KALB*       PTCLDY    71  63  76 W9        29.92R
PERU*          CLOUDY    72  65  79 CALM      29.92S
$$

ILZ005-006-012>014-019>023-140300-
NORTHEAST ILLINOIS

CITY           SKY/WX    TMP DP  RH WIND       PRES   REMARKS
CHICAGO-OHARE  MOCLDY    78  64  61 W12       29.87F HX  80
CHICAGO-MIDWAY MOCLDY    79  66  64 SW13      29.88S HX  81
AURORA         CLOUDY    72  66  81 SW6       29.90F
LANSING*       CLOUDY    77  64  62 SW7       29.90R
JOLIET*        CLOUDY    74  66  75 W6        29.91F
WAUKEGAN       PTCLDY    75  61  61 VRB3      29.87S
DUPAGE AIRPORT CLOUDY    75  66  73 W8        29.89S
KANKAKEE*      PTCLDY    72  69  89 SW5       29.92S
WHEELING       MOCLDY    80  65  59 W9        29.88S HX  82
MORRIS*          N/A     72  70  93 SW6       29.90F
ROMEOVILLE*    CLOUDY    71  68  91 W5        29.90S
NORTHERLY ISL    N/A     80  62  54 W6          N/A  HX  81
$$

LMZ740>746-140300-
SOUTHERN LAKE MICHIGAN

STATION/POSITION SKY/WX   TEMP    WIND        PRES    VSBY  WAVE
                          AIR SEA DIR/SP/G                  HT/PER
                          (F)     (DEG/KT/KT) (MB)    (MI)  (FT/S)
SOUTHERN BUOY              67 65  350/  4/  4 1011.5R         0
WAUKEGAN HARBOR            79     260/  4/  9 1012.5S
HARRISON CRIB              79     250/ 10/ 13   N/A
BURNHAM HARBOR             80     280/  7/ 11   N/A
CALUMET HARBOR             80     220/  6/  9 1012.6F
BURNS HARBOR               80     220/  8/ 11 1012.2F
MICHIGAN CITY              77     190/ 10/ 11   N/A
$$

ILZ025>027-034>036-040-047-049-050-058-095>099-140300-
WEST-CENTRAL ILLINOIS

CITY           SKY/WX    TMP DP  RH WIND       PRES   REMARKS
QUINCY         PTCLDY    78  69  73 CALM      29.94S HX  80
GALESBURG*     LGT RAIN  74  64  71 NW9       29.95R
MACOMB*        PTCLDY    74  71  91 CALM      29.96R
JACKSONVILLE*  MOCLDY    77  73  87 NW3       29.95S
PITTSFIELD*    MOCLDY    77  74  88 CALM      29.95S
$$

ILZ028>032-037-038-041>044-048-051>054-059>061-140300-
CENTRAL ILLINOIS

CITY           SKY/WX    TMP DP  RH WIND       PRES   REMARKS
PONTIAC        CLEAR     73  72  94 SW3       29.92S
BLOOMINGTON    PTCLDY    74  65  73 W6        29.95R
DECATUR        MOCLDY    78  68  71 CALM      29.94R HX  80
PEORIA         CLEAR     77  69  76 SW6       29.93S
LACON*         MOCLDY    74  65  74 CALM      29.92R
LINCOLN*       MOCLDY    76  67  75 CALM      29.91R
SPRINGFIELD    CLOUDY    77  73  87 CALM      29.94R
TAYLORVILLE    CLOUDY    73  72  94 W3        29.94S
$$

ILZ033-039-045-046-055>057-062-063-140300-
EAST-CENTRAL ILLINOIS

CITY           SKY/WX    TMP DP  RH WIND       PRES   REMARKS
CHAMPAIGN      CLEAR     76  72  87 CALM      29.94R
RANTOUL*       CLEAR     74  68  81 CALM      29.94S
MATTOON        PTCLDY    77  70  79 W3        29.93S
PARIS*         PTCLDY    73  72  96 CALM      29.94S
$$

ILZ079-100>102-140300-
SOUTHWEST ILLINOIS

CITY           SKY/WX    TMP DP  RH WIND       PRES   REMARKS
BELLEVILLE     MOCLDY    82  69  62 SW5       29.93R HX  85
CAHOKIA*       MOCLDY    82  66  58 S5        29.93R HX  84
SPARTA*        CLOUDY    73  70  88 CALM      29.95F
$$

ILZ064>066-069>071-074>076-080>082-084>086-088>090-092>094-140300-
SOUTH-CENTRAL ILLINOIS

CITY           SKY/WX    TMP DP  RH WIND       PRES   REMARKS
CARBONDALE     TSTM      74  71  91 NW5       29.96R
CAIRO*         CLEAR     85  72  64 SW6       29.93S HX  91
MARION         RAIN      77  72  83 NW15G29   29.98R
MT. VERNON     CLOUDY    81  70  69 CALM      29.93R HX  84
CENTRALIA*     CLOUDY    79  73  80 SW3       29.93R HX  83
SALEM*         MOCLDY    82  75  79 CALM      29.93S HX  89
METROPOLIS*    CLEAR     85  70  61 SW3       29.94R HX  89
$$

ILZ067-068-072-073-078-083-087-091-140300-
SOUTHEAST ILLINOIS

CITY           SKY/WX    TMP DP  RH WIND       PRES   REMARKS
FLORA*         CLEAR     81  71  71 CALM      29.93S HX  85
HARRISBURG*    PTCLDY    78  77  95 W8        29.95R HX  81
ROBINSON*      PTCLDY    77  75  93 CALM      29.93S
CARMI*         PTCLDY    82  73  74 CALM      29.92S HX  87
$$

ABBREVIATIONS USED IN REMARKS
   TC - TEMPERATURE IN CELSIUS
  WCI - WIND CHILL INDEX
   HX - HEAT INDEX
  VSB - VISIBILITY
$$




USA.gov is the U.S. government's official web portal to all federal, state and local government web resources and services.